Date String (YYYY-MM-DD hh:mm:ss) UTC,Instrument flags,absolute air pressure of the measurement (hPa),sample flow rate (lpm),inlet stack bypass flow (lpm),air temperature of the measurement (°C),ambient temperature measured by the external sensor (°C),aerosol sample conditioner tube jacket temperature (°C),OPC LED temperature (°C),internal box temperature (°C),relative humidity of the measurement (%),span deviation,mass concentration of particles derived from Lorenz-Mie calculation of OPC scattering (μg/m³),mass concentration of particles derived from Lorenz-Mie calculation of OPC scattering (μg/m³),mass concentration of particles derived from Lorenz-Mie calculation of OPC scattering (μg/m³)
DateTimeUTC,F1_M11,P_M11,Q1_M11,Q2_M11,T1_M11,T2_M11,T3_M11,T4_M11,T5_M11,U1_M11,ZSPAN_M11,X0_M11,X2_M11,X1_M11
2024-05-12 22:00:00,SystemResetWarning,0825.2,5.00,000.00,024.8,024.0,000.0,033.0,026.6,026.8,0000.0,0008.37,0003.17,0002.52
2024-05-12 22:01:00,SystemResetWarning,0825.2,4.98,000.00,024.8,024.2,000.0,033.0,026.7,026.4,0000.0,0008.40,0003.20,0002.55
2024-05-12 22:02:00,SystemResetWarning,0825.2,4.99,000.00,024.9,024.3,000.0,033.1,026.8,026.3,0000.0,0008.53,0003.25,0002.57
2024-05-12 22:03:00,SystemResetWarning,0825.1,5.00,000.00,024.9,024.4,000.0,033.1,026.8,026.7,0000.0,0008.52,0003.26,0002.59
2024-05-12 22:04:00,SystemResetWarning,0825.1,5.00,000.00,025.0,024.5,000.0,033.1,026.9,026.5,0000.0,0008.07,0003.22,0002.59
2024-05-12 22:05:00,SystemResetWarning,0825.1,5.00,000.00,025.1,024.6,000.0,033.1,027.0,026.7,0000.0,0008.03,0003.21,0002.59
2024-05-12 22:06:00,SystemResetWarning,0825.0,5.00,000.00,025.1,024.7,000.0,033.2,027.0,027.1,0000.0,0008.44,0003.23,0002.61
2024-05-12 22:07:00,SystemResetWarning,0825.0,5.00,000.00,025.2,024.7,000.0,033.2,027.0,027.1,0000.0,0008.51,0003.22,0002.61
2024-05-12 22:08:00,SystemResetWarning,0824.9,4.99,000.00,025.2,024.8,000.0,033.2,027.1,026.9,0000.0,0008.02,0003.19,0002.59
2024-05-12 22:09:00,SystemResetWarning,0824.9,5.00,000.00,025.3,024.9,000.0,033.3,027.1,026.6,0000.0,0008.07,0003.19,0002.57
2024-05-12 22:10:00,SystemResetWarning,0824.9,5.00,000.00,025.3,024.5,000.0,033.3,026.9,026.1,0000.0,0007.49,0003.23,0002.56
2024-05-12 22:11:00,SystemResetWarning,0824.9,5.00,000.00,025.0,022.5,000.0,033.4,025.9,025.9,0000.0,0008.25,0003.24,0002.55
2024-05-12 22:12:00,SystemResetWarning,0824.9,5.01,000.00,024.7,022.0,000.0,033.4,025.5,027.3,0000.0,0008.43,0003.27,0002.53
2024-05-12 22:13:00,SystemResetWarning,0824.9,5.01,000.00,024.6,022.3,000.0,033.3,025.6,028.0,0000.0,0008.45,0003.24,0002.50
2024-05-12 22:14:00,SystemResetWarning,0824.9,5.00,000.00,024.6,022.6,000.0,033.2,025.9,027.5,0000.0,0008.42,0003.24,0002.48
2024-05-12 22:15:00,SystemResetWarning,0824.9,4.99,000.00,024.6,023.0,000.0,033.1,026.1,027.4,0000.0,0008.63,0003.25,0002.47
2024-05-12 22:16:00,SystemResetWarning,0824.9,5.00,000.00,024.6,023.3,000.0,033.1,026.3,027.9,0000.0,0008.88,0003.27,0002.46
2024-05-12 22:17:00,SystemResetWarning,0824.9,5.00,000.00,024.7,023.5,000.0,033.0,026.4,027.8,0000.0,0008.99,0003.30,0002.45
2024-05-12 22:18:00,SystemResetWarning,0825.0,5.00,000.00,024.7,023.8,000.0,033.0,026.5,027.3,0000.0,0008.58,0003.30,0002.44
2024-05-12 22:19:00,SystemResetWarning,0825.0,5.01,000.00,024.8,024.0,000.0,033.1,026.6,027.2,0000.0,0008.47,0003.31,0002.44
2024-05-12 22:20:00,SystemResetWarning,0825.0,5.01,000.00,024.8,024.1,000.0,033.1,026.7,026.7,0000.0,0008.94,0003.32,0002.45
2024-05-12 22:21:00,SystemResetWarning,0825.1,4.99,000.00,024.9,024.3,000.0,033.1,026.7,027.7,0000.0,0008.77,0003.29,0002.46
2024-05-12 22:22:00,SystemResetWarning,0825.1,5.00,000.00,024.9,024.4,000.0,033.1,026.8,026.6,0000.0,0008.11,0003.27,0002.44
2024-05-12 22:23:00,SystemResetWarning,0825.2,5.00,000.00,025.0,024.5,000.0,033.1,026.9,026.7,0000.0,0007.65,0003.21,0002.42
2024-05-12 22:24:00,SystemResetWarning,0825.2,5.00,000.00,025.0,024.6,000.0,033.2,026.9,026.3,0000.0,0007.53,0003.18,0002.41
2024-05-12 22:25:00,SystemResetWarning,0825.3,5.00,000.00,025.1,024.6,000.0,033.2,026.9,026.0,0000.0,0007.54,0003.20,0002.41
2024-05-12 22:26:00,SystemResetWarning,0825.3,5.01,000.00,025.1,024.7,000.0,033.2,027.0,025.7,0000.0,0007.60,0003.23,0002.42
2024-05-12 22:27:00,SystemResetWarning,0825.3,5.01,000.00,025.2,024.8,000.0,033.3,027.1,025.7,0000.0,0007.66,0003.22,0002.41
2024-05-12 22:28:00,SystemResetWarning,0825.2,4.99,000.00,025.2,024.8,000.0,033.3,027.1,025.7,0000.0,0007.24,0003.17,0002.40
2024-05-12 22:29:00,SystemResetWarning,0825.3,4.99,000.00,025.3,024.7,000.0,033.4,027.0,026.2,0000.0,0007.44,0003.16,0002.41
2024-05-12 22:30:00,SystemResetWarning,0825.3,5.00,000.00,025.0,022.9,000.0,033.4,026.0,025.6,0000.0,0007.51,0003.17,0002.42
2024-05-12 22:31:00,SystemResetWarning,0825.3,5.01,000.00,024.7,022.0,000.0,033.4,025.5,026.9,0000.0,0006.78,0003.15,0002.43
2024-05-12 22:32:00,SystemResetWarning,0825.3,5.01,000.00,024.5,022.2,000.0,033.3,025.5,027.3,0000.0,0006.24,0003.12,0002.40
2024-05-12 22:33:00,SystemResetWarning,0825.3,4.99,000.00,024.5,022.5,000.0,033.2,025.8,027.0,0000.0,0006.44,0003.14,0002.41
2024-05-12 22:34:00,SystemResetWarning,0825.3,5.01,000.00,024.5,022.9,000.0,033.1,026.0,026.8,0000.0,0006.52,0003.14,0002.41
2024-05-12 22:35:00,SystemResetWarning,0825.4,5.01,000.00,024.6,023.2,000.0,033.1,026.2,027.2,0000.0,0006.52,0003.14,0002.41
2024-05-12 22:36:00,SystemResetWarning,0825.4,4.99,000.00,024.6,023.5,000.0,033.1,026.4,027.0,0000.0,0006.45,0003.13,0002.40
2024-05-12 22:37:00,SystemResetWarning,0825.4,4.99,000.00,024.7,023.7,000.0,033.1,026.5,026.8,0000.0,0006.26,0003.06,0002.39
2024-05-12 22:38:00,SystemResetWarning,0825.4,5.02,000.00,024.7,023.9,000.0,033.1,026.6,026.7,0000.0,0005.68,0003.02,0002.36
2024-05-12 22:39:00,SystemResetWarning,0825.4,5.01,000.00,024.8,024.0,000.0,033.1,026.6,026.6,0000.0,0005.38,0002.99,0002.34
2024-05-12 22:40:00,SystemResetWarning,0825.4,4.99,000.00,024.8,024.2,000.0,033.1,026.7,026.2,0000.0,0005.12,0002.96,0002.32
2024-05-12 22:41:00,SystemResetWarning,0825.4,4.99,000.00,024.9,024.3,000.0,033.1,026.7,026.0,0000.0,0005.44,0002.94,0002.29
2024-05-12 22:42:00,SystemResetWarning,0825.5,5.00,000.00,024.9,024.4,000.0,033.1,026.8,026.1,0000.0,0005.97,0002.93,0002.26
2024-05-12 22:43:00,SystemResetWarning,0825.5,5.00,000.00,025.0,024.5,000.0,033.2,026.9,026.2,0000.0,0005.95,0002.93,0002.26
2024-05-12 22:44:00,SystemResetWarning,0825.4,5.01,000.00,025.0,024.5,000.0,033.2,026.9,026.0,0000.0,0006.04,0002.97,0002.26
2024-05-12 22:45:00,SystemResetWarning,0825.4,5.01,000.00,025.1,024.6,000.0,033.2,027.0,026.4,0000.0,0005.77,0002.95,0002.25
2024-05-12 22:46:00,SystemResetWarning,0825.4,4.99,000.00,025.1,024.7,000.0,033.2,027.0,026.0,0000.0,0005.80,0002.97,0002.25
2024-05-12 22:47:00,SystemResetWarning,0825.4,4.99,000.00,025.1,024.7,000.0,033.3,027.0,025.6,0000.0,0005.71,0002.94,0002.25
2024-05-12 22:48:00,SystemResetWarning,0825.5,5.00,000.00,025.2,024.8,000.0,033.3,027.1,025.3,0000.0,0006.83,0002.96,0002.25
2024-05-12 22:49:00,SystemResetWarning,0825.5,5.01,000.00,025.2,024.8,000.0,033.3,027.1,025.2,0000.0,0007.52,0002.98,0002.26
2024-05-12 22:50:00,SystemResetWarning,0825.5,5.00,000.00,025.3,024.8,000.0,033.4,027.2,025.1,0000.0,0008.12,0003.02,0002.28
2024-05-12 22:51:00,SystemResetWarning,0825.4,4.98,000.00,025.2,023.5,000.0,033.4,026.4,025.3,0000.0,0008.61,0003.09,0002.30
2024-05-12 22:52:00,SystemResetWarning,0825.4,5.02,000.00,024.7,021.9,000.0,033.5,025.5,026.1,0000.0,0008.20,0003.11,0002.32
2024-05-12 22:53:00,SystemResetWarning,0825.4,5.01,000.00,024.5,021.9,000.0,033.4,025.4,026.3,0000.0,0008.16,0003.10,0002.34
2024-05-12 22:54:00,SystemResetWarning,0825.5,4.99,000.00,024.5,022.3,000.0,033.2,025.6,026.3,0000.0,0008.62,0003.11,0002.36
2024-05-12 22:55:00,SystemResetWarning,0825.5,5.00,000.00,024.5,022.6,000.0,033.1,025.9,026.3,0000.0,0008.53,0003.07,0002.37
2024-05-12 22:56:00,SystemResetWarning,0825.5,5.02,000.00,024.5,023.0,000.0,033.1,026.1,026.5,0000.0,0008.51,0003.06,0002.39
2024-05-12 22:57:00,SystemResetWarning,0825.6,5.00,000.00,024.6,023.3,000.0,033.0,026.2,026.4,0000.0,0008.54,0003.08,0002.40
2024-05-12 22:58:00,SystemResetWarning,0825.6,5.00,000.00,024.6,023.5,000.0,033.0,026.3,026.4,0000.0,0008.56,0003.09,0002.39
2024-05-12 22:59:00,SystemResetWarning,0825.7,5.01,000.00,024.7,023.7,000.0,033.0,026.4,026.2,0000.0,0007.93,0003.09,0002.40
